Time,TemperatureF,DewpointF,PressureIn,WindDirection,WindDirectionDegrees,WindSpeedMPH,WindSpeedGustMPH,Humidity,HourlyPrecipIn,Conditions,Clouds,dailyrainin,SoftwareType,DateUTC
2013-03-15 00:03:00,35.0,26.0,30.06,NNW,331,0.0,0.0,69,0.00,,,0.00,,2013-03-15 04:03:00,
2013-03-15 00:12:00,35.0,26.0,30.06,NNW,331,0.0,0.0,69,0.00,,,0.00,,2013-03-15 04:12:00,
2013-03-15 00:23:00,34.0,25.0,30.07,NNW,331,0.0,0.0,68,0.00,,,0.00,,2013-03-15 04:23:00,
2013-03-15 00:32:00,34.0,26.0,30.07,NNW,331,0.0,0.0,72,0.00,,,0.00,,2013-03-15 04:32:00,
2013-03-15 00:43:00,34.0,26.0,30.07,NNW,331,0.0,0.0,72,0.00,,,0.00,,2013-03-15 04:43:00,
2013-03-15 00:53:00,33.0,26.0,30.07,NNW,331,0.0,0.0,74,0.00,,,0.00,,2013-03-15 04:53:00,
2013-03-15 01:02:00,33.0,25.0,30.08,NNW,331,0.0,0.0,73,0.00,,,0.00,,2013-03-15 05:02:00,
2013-03-15 01:12:00,33.0,25.0,30.08,NNW,331,0.0,0.0,73,0.00,,,0.00,,2013-03-15 05:12:00,
2013-03-15 01:23:00,33.0,26.0,30.08,NNW,331,0.0,0.0,75,0.00,,,0.00,,2013-03-15 05:23:00,
2013-03-15 01:32:00,33.0,26.0,30.08,NNW,331,0.0,0.0,74,0.00,,,0.00,,2013-03-15 05:32:00,
2013-03-15 01:42:00,33.0,26.0,30.08,NNW,331,0.0,0.0,74,0.00,,,0.00,,2013-03-15 05:42:00,
2013-03-15 01:52:00,32.0,25.0,30.08,NNW,331,0.0,0.0,76,0.00,,,0.00,,2013-03-15 05:52:00,
2013-03-15 02:02:00,32.0,25.0,30.08,NNW,331,0.0,0.0,76,0.00,,,0.00,,2013-03-15 06:02:00,
2013-03-15 02:12:00,32.0,25.0,30.08,NNW,331,0.0,0.0,76,0.00,,,0.00,,2013-03-15 06:12:00,
2013-03-15 02:22:00,32.0,25.0,30.09,NNW,331,0.0,0.0,76,0.00,,,0.00,,2013-03-15 06:22:00,
2013-03-15 02:32:00,31.0,25.0,30.08,NNW,331,0.0,0.0,77,0.00,,,0.00,,2013-03-15 06:32:00,
2013-03-15 02:42:00,31.0,25.0,30.08,NNW,331,0.0,0.0,77,0.00,,,0.00,,2013-03-15 06:42:00,
2013-03-15 02:53:00,31.0,24.0,30.08,NNW,331,0.0,0.0,76,0.00,,,0.00,,2013-03-15 06:53:00,
2013-03-15 03:02:00,30.0,24.0,30.08,NNW,331,0.0,0.0,79,0.00,,,0.00,,2013-03-15 07:02:00,
2013-03-15 03:12:00,30.0,24.0,30.08,NNW,331,0.0,0.0,79,0.00,,,0.00,,2013-03-15 07:12:00,
2013-03-15 03:22:00,30.0,24.0,30.08,NNW,331,0.0,0.0,79,0.00,,,0.00,,2013-03-15 07:22:00,
2013-03-15 03:32:00,30.0,25.0,30.07,NNW,331,0.0,0.0,80,0.00,,,0.00,,2013-03-15 07:32:00,
2013-03-15 03:42:00,30.0,25.0,30.07,NNW,331,0.0,0.0,80,0.00,,,0.00,,2013-03-15 07:42:00,
2013-03-15 03:52:00,30.0,25.0,30.06,NNW,331,0.0,0.0,80,0.00,,,0.00,,2013-03-15 07:52:00,
2013-03-15 04:02:00,30.0,24.0,30.06,NNW,331,0.0,0.0,78,0.00,,,0.00,,2013-03-15 08:02:00,
2013-03-15 04:12:00,30.0,24.0,30.06,NNW,331,0.0,0.0,78,0.00,,,0.00,,2013-03-15 08:12:00,
2013-03-15 04:23:00,30.0,24.0,30.06,NNW,331,0.0,0.0,78,0.00,,,0.00,,2013-03-15 08:23:00,
2013-03-15 04:33:00,30.0,24.0,30.05,NNW,331,0.0,0.0,78,0.00,,,0.00,,2013-03-15 08:33:00,
2013-03-15 04:42:00,30.0,24.0,30.05,NNW,331,0.0,0.0,78,0.00,,,0.00,,2013-03-15 08:42:00,
2013-03-15 04:52:00,30.0,24.0,30.05,NNW,331,0.0,0.0,77,0.00,,,0.00,,2013-03-15 08:52:00,
2013-03-15 05:02:00,30.0,23.0,30.06,NNW,331,0.0,0.0,74,0.00,,,0.00,,2013-03-15 09:02:00,
2013-03-15 05:12:00,30.0,23.0,30.06,NNW,331,0.0,0.0,74,0.00,,,0.00,,2013-03-15 09:12:00,
2013-03-15 05:22:00,30.0,23.0,30.06,NNW,331,0.0,0.0,75,0.00,,,0.00,,2013-03-15 09:22:00,
2013-03-15 05:33:00,30.0,23.0,30.06,NNW,331,0.0,0.0,76,0.00,,,0.00,,2013-03-15 09:33:00,
2013-03-15 05:43:00,30.0,23.0,30.06,NNW,331,0.0,0.0,76,0.00,,,0.00,,2013-03-15 09:43:00,
2013-03-15 05:53:00,29.0,23.0,30.06,NNW,331,0.0,0.0,78,0.00,,,0.00,,2013-03-15 09:53:00,
2013-03-15 06:03:00,29.0,23.0,30.07,NNW,331,0.0,0.0,79,0.00,,,0.00,,2013-03-15 10:03:00,
2013-03-15 06:13:00,29.0,23.0,30.07,NNW,331,0.0,0.0,79,0.00,,,0.00,,2013-03-15 10:13:00,
2013-03-15 06:23:00,28.0,23.0,30.08,NNW,331,0.0,0.0,80,0.00,,,0.00,,2013-03-15 10:23:00,
2013-03-15 06:33:00,28.0,23.0,30.09,NNW,331,0.0,0.0,80,0.00,,,0.00,,2013-03-15 10:33:00,
2013-03-15 06:43:00,28.0,23.0,30.09,NNW,331,0.0,0.0,80,0.00,,,0.00,,2013-03-15 10:43:00,
2013-03-15 06:52:00,28.0,23.0,30.08,NNW,331,0.0,0.0,80,0.00,,,0.00,,2013-03-15 10:52:00,
2013-03-15 07:03:00,28.0,23.0,30.08,NNW,331,0.0,0.0,80,0.00,,,0.00,,2013-03-15 11:03:00,
2013-03-15 07:12:00,28.0,23.0,30.08,NNW,331,0.0,0.0,80,0.00,,,0.00,,2013-03-15 11:12:00,
2013-03-15 07:23:00,27.0,22.0,30.08,NNW,331,0.0,0.0,81,0.00,,,0.00,,2013-03-15 11:23:00,
2013-03-15 07:32:00,27.0,23.0,30.08,NNW,331,0.0,0.0,83,0.00,,,0.00,,2013-03-15 11:32:00,
2013-03-15 07:42:00,27.0,23.0,30.08,NNW,331,0.0,0.0,83,0.00,,,0.00,,2013-03-15 11:42:00,
2013-03-15 07:52:00,27.0,23.0,30.08,NNW,331,0.0,0.0,83,0.00,,,0.00,,2013-03-15 11:52:00,
2013-03-15 08:02:00,27.0,23.0,30.08,NNW,331,0.0,0.0,84,0.00,,,0.00,,2013-03-15 12:02:00,
2013-03-15 08:12:00,27.0,23.0,30.08,NNW,331,0.0,0.0,84,0.00,,,0.00,,2013-03-15 12:12:00,
2013-03-15 08:23:00,27.0,23.0,30.09,NNW,331,0.0,0.0,85,0.00,,,0.00,,2013-03-15 12:23:00,
2013-03-15 08:32:00,28.0,24.0,30.09,NNW,331,0.0,0.0,84,0.00,,,0.00,,2013-03-15 12:32:00,
2013-03-15 08:42:00,28.0,24.0,30.09,NNW,331,0.0,0.0,84,0.00,,,0.00,,2013-03-15 12:42:00,
2013-03-15 08:52:00,29.0,25.0,30.09,NNW,331,0.0,0.0,84,0.00,,,0.00,,2013-03-15 12:52:00,
2013-03-15 09:02:00,31.0,26.0,30.09,NNW,331,0.0,0.0,83,0.00,,,0.00,,2013-03-15 13:02:00,
2013-03-15 09:12:00,31.0,26.0,30.09,NNW,331,0.0,0.0,83,0.00,,,0.00,,2013-03-15 13:12:00,
2013-03-15 09:22:00,33.0,26.0,30.09,NNW,331,0.0,0.0,76,0.00,,,0.00,,2013-03-15 13:22:00,
2013-03-15 09:32:00,37.0,24.0,30.09,WNW,303,0.0,6.0,59,0.00,,,0.00,,2013-03-15 13:32:00,
2013-03-15 09:42:00,37.0,24.0,30.09,WNW,303,0.0,6.0,59,0.00,,,0.00,,2013-03-15 13:42:00,
2013-03-15 09:53:00,42.0,24.0,30.09,West,276,0.0,0.0,48,0.00,,,0.00,,2013-03-15 13:53:00,
2013-03-15 10:02:00,44.0,21.0,30.09,North,5,1.0,6.0,39,0.00,,,0.00,,2013-03-15 14:02:00,
2013-03-15 10:12:00,44.0,21.0,30.09,North,5,1.0,6.0,39,0.00,,,0.00,,2013-03-15 14:12:00,
2013-03-15 10:22:00,46.0,21.0,30.09,NW,305,0.0,8.0,36,0.00,,,0.00,,2013-03-15 14:22:00,
2013-03-15 10:32:00,47.0,20.0,30.09,NW,313,0.0,4.0,34,0.00,,,0.00,,2013-03-15 14:32:00,
2013-03-15 10:42:00,47.0,20.0,30.09,NW,313,0.0,4.0,34,0.00,,,0.00,,2013-03-15 14:42:00,
2013-03-15 10:53:00,48.0,20.0,30.09,West,263,0.0,6.0,32,0.00,,,0.00,,2013-03-15 14:53:00,
2013-03-15 11:02:00,49.0,17.0,30.08,NNW,332,0.0,7.0,28,0.00,,,0.00,,2013-03-15 15:02:00,
2013-03-15 11:13:00,49.0,17.0,30.08,NNW,332,0.0,7.0,28,0.00,,,0.00,,2013-03-15 15:13:00,
2013-03-15 11:23:00,50.0,20.0,30.06,NW,309,0.0,9.0,30,0.00,,,0.00,,2013-03-15 15:23:00,
2013-03-15 11:33:00,51.0,21.0,30.06,NW,326,0.0,3.0,30,0.00,,,0.00,,2013-03-15 15:33:00,
2013-03-15 11:42:00,52.0,20.0,30.06,WNW,285,1.0,7.0,28,0.00,,,0.00,,2013-03-15 15:42:00,
2013-03-15 11:53:00,52.0,20.0,30.06,WNW,285,1.0,7.0,28,0.00,,,0.00,,2013-03-15 15:53:00,
2013-03-15 12:03:00,53.0,22.0,30.05,WSW,245,3.0,7.0,29,0.00,,,0.00,,2013-03-15 16:03:00,
2013-03-15 12:12:00,55.0,23.0,30.03,South,187,0.0,4.0,29,0.00,,,0.00,,2013-03-15 16:12:00,
2013-03-15 12:23:00,55.0,23.0,30.03,South,187,0.0,4.0,29,0.00,,,0.00,,2013-03-15 16:23:00,
2013-03-15 12:32:00,56.0,25.0,30.03,WNW,292,0.0,8.0,30,0.00,,,0.00,,2013-03-15 16:32:00,
2013-03-15 12:42:00,56.0,25.0,30.03,WNW,292,0.0,8.0,30,0.00,,,0.00,,2013-03-15 16:42:00,
2013-03-15 12:52:00,57.0,24.0,30.02,SSW,195,1.0,10.0,28,0.00,,,0.00,,2013-03-15 16:52:00,
2013-03-15 13:02:00,57.0,27.0,30.01,NNW,338,2.0,11.0,31,0.00,,,0.00,,2013-03-15 17:02:00,
2013-03-15 13:12:00,57.0,27.0,30.01,NNW,338,2.0,11.0,31,0.00,,,0.00,,2013-03-15 17:12:00,
2013-03-15 13:22:00,58.0,28.0,30.00,West,270,1.0,6.0,31,0.00,,,0.00,,2013-03-15 17:22:00,
2013-03-15 13:32:00,60.0,29.0,30.00,SSE,155,0.0,6.0,31,0.00,,,0.00,,2013-03-15 17:32:00,
2013-03-15 13:42:00,60.0,29.0,30.00,SSE,155,0.0,6.0,31,0.00,,,0.00,,2013-03-15 17:42:00,
2013-03-15 13:53:00,60.0,27.0,29.98,SSW,197,0.0,10.0,28,0.00,,,0.00,,2013-03-15 17:53:00,
2013-03-15 14:02:00,60.0,27.0,29.97,SW,221,4.0,13.0,28,0.00,,,0.00,,2013-03-15 18:02:00,
2013-03-15 14:12:00,60.0,27.0,29.97,SW,221,4.0,13.0,28,0.00,,,0.00,,2013-03-15 18:12:00,
2013-03-15 14:22:00,60.0,27.0,29.97,WNW,297,1.0,8.0,28,0.00,,,0.00,,2013-03-15 18:22:00,
2013-03-15 14:32:00,61.0,29.0,29.96,WSW,241,1.0,6.0,30,0.00,,,0.00,,2013-03-15 18:32:00,
2013-03-15 14:42:00,61.0,29.0,29.96,WSW,241,1.0,6.0,30,0.00,,,0.00,,2013-03-15 18:42:00,
2013-03-15 14:52:00,62.0,29.0,29.95,NW,314,0.0,4.0,28,0.00,,,0.00,,2013-03-15 18:52:00,
2013-03-15 15:02:00,62.0,29.0,29.93,WSW,255,0.0,11.0,29,0.00,,,0.00,,2013-03-15 19:02:00,
2013-03-15 15:12:00,62.0,29.0,29.93,WSW,255,0.0,11.0,29,0.00,,,0.00,,2013-03-15 19:12:00,
2013-03-15 15:22:00,63.0,29.0,29.92,WNW,288,2.0,14.0,28,0.00,,,0.00,,2013-03-15 19:22:00,
2013-03-15 15:32:00,63.0,29.0,29.91,WNW,289,1.0,7.0,28,0.00,,,0.00,,2013-03-15 19:32:00,
2013-03-15 15:42:00,63.0,29.0,29.91,WNW,289,1.0,7.0,28,0.00,,,0.00,,2013-03-15 19:42:00,
2013-03-15 15:53:00,62.0,30.0,29.91,WSW,247,0.0,5.0,30,0.00,,,0.00,,2013-03-15 19:53:00,
2013-03-15 16:02:00,63.0,29.0,29.89,SW,230,1.0,6.0,28,0.00,,,0.00,,2013-03-15 20:02:00,
2013-03-15 16:12:00,63.0,29.0,29.89,SW,230,1.0,6.0,28,0.00,,,0.00,,2013-03-15 20:12:00,
2013-03-15 16:22:00,63.0,29.0,29.89,SSE,168,1.0,10.0,28,0.00,,,0.00,,2013-03-15 20:22:00,
2013-03-15 16:32:00,63.0,29.0,29.89,SSE,156,1.0,10.0,28,0.00,,,0.00,,2013-03-15 20:32:00,
2013-03-15 16:42:00,63.0,29.0,29.89,SSE,156,1.0,10.0,28,0.00,,,0.00,,2013-03-15 20:42:00,
2013-03-15 16:52:00,62.0,29.0,29.88,East,90,0.0,9.0,28,0.00,,,0.00,,2013-03-15 20:52:00,
2013-03-15 17:02:00,61.0,29.0,29.88,SSW,205,1.0,9.0,30,0.00,,,0.00,,2013-03-15 21:02:00,
2013-03-15 17:12:00,61.0,29.0,29.88,SSW,205,1.0,9.0,30,0.00,,,0.00,,2013-03-15 21:12:00,
2013-03-15 17:22:00,61.0,29.0,29.87,SSW,200,0.0,7.0,30,0.00,,,0.00,,2013-03-15 21:22:00,
2013-03-15 17:33:00,60.0,31.0,29.87,SSW,195,0.0,6.0,33,0.00,,,0.00,,2013-03-15 21:33:00,
2013-03-15 17:43:00,60.0,31.0,29.87,SSW,195,0.0,6.0,33,0.00,,,0.00,,2013-03-15 21:43:00,
2013-03-15 17:53:00,60.0,32.0,29.86,West,272,0.0,4.0,34,0.00,,,0.00,,2013-03-15 21:53:00,
2013-03-15 18:03:00,60.0,32.0,29.86,South,180,0.0,4.0,35,0.00,,,0.00,,2013-03-15 22:03:00,
2013-03-15 18:14:00,60.0,32.0,29.86,South,180,0.0,4.0,35,0.00,,,0.00,,2013-03-15 22:14:00,
2013-03-15 18:22:00,60.0,32.0,29.85,SW,232,0.0,0.0,35,0.00,,,0.00,,2013-03-15 22:22:00,
2013-03-15 18:32:00,60.0,32.0,29.85,SW,214,0.0,2.0,35,0.00,,,0.00,,2013-03-15 22:32:00,
2013-03-15 18:42:00,60.0,32.0,29.85,SW,214,0.0,2.0,35,0.00,,,0.00,,2013-03-15 22:42:00,
2013-03-15 18:53:00,60.0,34.0,29.85,SSW,201,0.0,0.0,37,0.00,,,0.00,,2013-03-15 22:53:00,
2013-03-15 19:02:00,61.0,34.0,29.85,SSW,212,0.0,3.0,36,0.00,,,0.00,,2013-03-15 23:02:00,
2013-03-15 19:12:00,61.0,34.0,29.85,SSW,212,0.0,3.0,36,0.00,,,0.00,,2013-03-15 23:12:00,
2013-03-15 19:22:00,60.0,34.0,29.84,West,261,0.0,3.0,37,0.00,,,0.00,,2013-03-15 23:22:00,
2013-03-15 19:32:00,58.0,33.0,29.85,WSW,247,0.0,2.0,38,0.00,,,0.00,,2013-03-15 23:32:00,
2013-03-15 19:42:00,58.0,33.0,29.85,WSW,247,0.0,2.0,38,0.00,,,0.00,,2013-03-15 23:42:00,
2013-03-15 19:53:00,58.0,34.0,29.85,West,264,0.0,0.0,40,0.00,,,0.00,,2013-03-15 23:53:00,
2013-03-15 20:03:00,57.0,33.0,29.85,WSW,257,0.0,1.0,40,0.00,,,0.00,,2013-03-16 00:03:00,
2013-03-15 20:12:00,57.0,33.0,29.85,WSW,257,0.0,1.0,40,0.00,,,0.00,,2013-03-16 00:12:00,
2013-03-15 20:22:00,56.0,33.0,29.85,WSW,256,0.0,0.0,42,0.00,,,0.00,,2013-03-16 00:22:00,
2013-03-15 20:32:00,55.0,33.0,29.85,WSW,256,0.0,0.0,44,0.00,,,0.00,,2013-03-16 00:32:00,
2013-03-15 20:42:00,55.0,33.0,29.85,WSW,256,0.0,0.0,44,0.00,,,0.00,,2013-03-16 00:42:00,
2013-03-15 20:52:00,54.0,33.0,29.85,WSW,256,0.0,1.0,44,0.00,,,0.00,,2013-03-16 00:52:00,
2013-03-15 21:03:00,53.0,33.0,29.85,WSW,256,0.0,0.0,46,0.00,,,0.00,,2013-03-16 01:03:00,
2013-03-15 21:12:00,53.0,33.0,29.85,WSW,256,0.0,0.0,46,0.00,,,0.00,,2013-03-16 01:12:00,
2013-03-15 21:22:00,52.0,32.0,29.85,WSW,256,0.0,0.0,47,0.00,,,0.00,,2013-03-16 01:22:00,
2013-03-15 21:32:00,52.0,33.0,29.85,WSW,256,0.0,1.0,48,0.00,,,0.00,,2013-03-16 01:32:00,
2013-03-15 21:42:00,52.0,33.0,29.85,WSW,256,0.0,1.0,48,0.00,,,0.00,,2013-03-16 01:42:00,
2013-03-15 21:53:00,52.0,34.0,29.84,WSW,245,0.0,0.0,50,0.00,,,0.00,,2013-03-16 01:53:00,
2013-03-15 22:02:00,52.0,33.0,29.84,SW,230,0.0,5.0,49,0.00,,,0.00,,2013-03-16 02:02:00,
2013-03-15 22:12:00,52.0,33.0,29.84,SW,230,0.0,5.0,49,0.00,,,0.00,,2013-03-16 02:12:00,
2013-03-15 22:23:00,53.0,34.0,29.84,South,187,0.0,3.0,49,0.00,,,0.00,,2013-03-16 02:23:00,
2013-03-15 22:32:00,53.0,34.0,29.84,South,173,0.0,5.0,49,0.00,,,0.00,,2013-03-16 02:32:00,
2013-03-15 22:42:00,53.0,34.0,29.84,South,173,0.0,5.0,49,0.00,,,0.00,,2013-03-16 02:42:00,
2013-03-15 22:52:00,53.0,34.0,29.84,SSE,163,0.0,2.0,48,0.00,,,0.00,,2013-03-16 02:52:00,
2013-03-15 23:02:00,53.0,34.0,29.84,SSW,197,1.0,5.0,49,0.00,,,0.00,,2013-03-16 03:02:00,
2013-03-15 23:12:00,53.0,34.0,29.84,SSW,197,1.0,5.0,49,0.00,,,0.00,,2013-03-16 03:12:00,
2013-03-15 23:22:00,53.0,34.0,29.84,South,179,1.0,4.0,48,0.00,,,0.00,,2013-03-16 03:22:00,
2013-03-15 23:32:00,53.0,34.0,29.83,South,174,0.0,6.0,49,0.00,,,0.00,,2013-03-16 03:32:00,
2013-03-15 23:43:00,53.0,34.0,29.83,South,174,0.0,6.0,49,0.00,,,0.00,,2013-03-16 03:43:00,
2013-03-15 23:53:00,53.0,35.0,29.83,South,188,0.0,6.0,50,0.00,,,0.00,,2013-03-16 03:53:00,